| time (UTC) | temp F | wind direction | speed MPH | gust MPH | rain 1hr in | rain 24hr in | rain mn in | humidity % | barometer mb |
| 20260504221824 | 58 | 270 | 3.0 | 7.0 | 0.00 | 0.00 | 0.00 | 61 | 1008.4 |
| 20260504220828 | 58 | 258 | 1.0 | 6.0 | 0.00 | 0.00 | 0.00 | 61 | 1008.2 |
| 20260504215924 | 58 | 255 | 3.0 | 6.0 | 0.00 | 0.00 | 0.00 | 61 | 1007.9 |
| 20260504214925 | 58 | 253 | 4.0 | 8.0 | 0.00 | 0.00 | 0.00 | 61 | 1007.9 |
| 20260504213928 | 58 | 234 | 1.0 | 2.0 | 0.00 | 0.00 | 0.00 | 61 | 1007.9 |
| 20260504212926 | 58 | 261 | 2.0 | 5.0 | 0.00 | 0.00 | 0.00 | 62 | 1007.8 |
| 20260504211927 | 59 | 260 | 0.0 | 3.0 | 0.00 | 0.00 | 0.00 | 61 | 1007.8 |
| 20260504210927 | 59 | 232 | 1.0 | 5.0 | 0.00 | 0.00 | 0.00 | 61 | 1007.8 |
| 20260504205924 | 59 | 258 | 2.0 | 5.0 | 0.00 | 0.00 | 0.00 | 61 | 1007.8 |
| 20260504204927 | 59 | 215 | 4.0 | 8.0 | 0.00 | 0.00 | 0.00 | 61 | 1007.8 |
| 20260504202124 | 58 | 215 | 3.0 | 9.0 | 0.00 | 0.00 | 0.00 | 63 | 1007.6 |
| 20260504201126 | 57 | 219 | 3.0 | 6.0 | 0.00 | 0.01 | 0.00 | 64 | 1007.7 |
| 20260504195324 | 54 | 225 | 2.0 | 5.0 | 0.00 | 0.01 | 0.00 | 67 | 1007.7 |
| 20260504194328 | 54 | 229 | 5.0 | 7.0 | 0.00 | 0.02 | 0.00 | 68 | 1007.8 |
| 20260504193327 | 53 | 238 | 4.0 | 7.0 | 0.00 | 0.02 | 0.00 | 69 | 1007.9 |
| 20260504192326 | 53 | 229 | 3.0 | 6.0 | 0.00 | 0.02 | 0.00 | 71 | 1007.9 |
| 20260504191327 | 52 | 237 | 2.0 | 4.0 | 0.00 | 0.02 | 0.00 | 73 | 1008.1 |
| 20260504190325 | 52 | 225 | 4.0 | 8.0 | 0.00 | 0.03 | 0.00 | 74 | 1008.3 |
| 20260504190228 | 51 | 203 | 1.0 | 4.0 | 0.00 | 0.03 | 0.00 | 75 | 1008.3 |
| 20260504184324 | 52 | 225 | 3.0 | 7.0 | 0.00 | 0.04 | 0.00 | 74 | 1008.7 |
| 20260504183326 | 52 | 247 | 0.0 | 2.0 | 0.00 | 0.05 | 0.00 | 73 | 1008.8 |
| 20260504182424 | 52 | 274 | 1.0 | 3.0 | 0.00 | 0.06 | 0.00 | 71 | 1008.7 |
| 20260504180426 | 51 | 250 | 1.0 | 3.0 | 0.00 | 0.08 | 0.00 | 69 | 1008.5 |
| 20260504175425 | 50 | 225 | 3.0 | 7.0 | 0.00 | 0.09 | 0.00 | 70 | 1008.3 |
| 20260504174427 | 50 | 233 | 1.0 | 4.0 | 0.00 | 0.11 | 0.00 | 71 | 1008.3 |
| 20260504173524 | 50 | 234 | 2.0 | 8.0 | 0.00 | 0.12 | 0.00 | 71 | 1008.3 |
| 20260504172525 | 50 | 238 | 4.0 | 9.0 | 0.00 | 0.13 | 0.00 | 70 | 1008.0 |
| 20260504171525 | 52 | 235 | 5.0 | 10.0 | 0.00 | 0.14 | 0.00 | 65 | 1008.1 |
| 20260504170625 | 55 | 233 | 2.0 | 7.0 | 0.00 | 0.14 | 0.00 | 63 | 1007.9 |
| 20260504150725 | 53 | 227 | 4.0 | 7.0 | 0.00 | 0.30 | 0.00 | 56 | 1009.0 |
| 20260504110126 | 41 | 233 | 3.0 | 7.0 | 0.00 | 0.65 | 0.00 | 72 | 1009.8 |
| 20260504100326 | 38 | 270 | 1.0 | 3.0 | 0.00 | 0.74 | 0.00 | 79 | 1009.2 |
| 20260504081525 | 38 | 270 | 3.0 | 5.0 | 0.00 | 0.83 | 0.00 | 76 | 1008.5 |
| 20260504080527 | 38 | 261 | 3.0 | 6.0 | 0.00 | 0.84 | 0.00 | 76 | 1008.3 |
| 20260504045624 | 39 | 185 | 1.0 | 3.0 | 0.00 | 1.00 | 0.00 | 75 | 1007.3 |
| 20260504042724 | 39 | 268 | 3.0 | 10.0 | 0.00 | 1.00 | 0.00 | 75 | 1007.2 |
| 20260504041824 | 39 | 270 | 1.0 | 3.0 | 0.00 | 1.00 | 0.00 | 75 | 1007.2 |
| 20260504040824 | 39 | 253 | 1.0 | 4.0 | 0.00 | 1.00 | 0.00 | 75 | 1007.0 |
| 20260504035833 | 39 | 282 | 3.0 | 6.0 | 0.00 | 1.00 | 1.00 | 75 | 1007.0 |
| 20260504034932 | 39 | 270 | 0.0 | 1.0 | 0.00 | 1.00 | 1.00 | 74 | 1006.8 |
| 20260504033936 | 40 | 312 | 1.0 | 5.0 | 0.00 | 1.00 | 1.00 | 73 | 1006.8 |
| 20260504032935 | 40 | 270 | 2.0 | 4.0 | 0.00 | 1.00 | 1.00 | 74 | 1006.8 |
| 20260504031933 | 40 | 336 | 2.0 | 3.0 | 0.00 | 1.00 | 1.00 | 73 | 1006.7 |
| 20260504030835 | 40 | 251 | 3.0 | 7.0 | 0.00 | 1.00 | 1.00 | 74 | 1006.5 |
| 20260504025935 | 40 | 333 | 2.0 | 3.0 | 0.00 | 1.00 | 1.00 | 75 | 1006.4 |
| 20260504024035 | 41 | 262 | 2.0 | 6.0 | 0.00 | 1.00 | 1.00 | 75 | 1006.3 |
| 20260504022036 | 41 | 239 | 5.0 | 9.0 | 0.00 | 1.00 | 1.00 | 75 | 1006.2 |
| 20260504021135 | 42 | 287 | 2.0 | 6.0 | 0.00 | 1.00 | 1.00 | 73 | 1006.3 |
| 20260504020134 | 43 | 271 | 5.0 | 11.0 | 0.00 | 1.00 | 1.00 | 72 | 1006.0 |
| 20260504015136 | 43 | 235 | 3.0 | 6.0 | 0.00 | 1.00 | 1.00 | 75 | 1005.9 |
| 20260504013233 | 42 | 286 | 2.0 | 7.0 | 0.00 | 1.00 | 1.00 | 84 | 1005.8 |
| 20260504012235 | 42 | 271 | 2.0 | 4.0 | 0.00 | 1.00 | 1.00 | 88 | 1005.7 |
| 20260504011235 | 42 | 247 | 2.0 | 5.0 | 0.00 | 1.00 | 1.00 | 91 | 1005.5 |
| 20260504010333 | 42 | 224 | 1.0 | 3.0 | 0.00 | 1.00 | 1.00 | 91 | 1005.5 |
| 20260504005335 | 42 | 192 | 2.0 | 4.0 | 0.00 | 1.00 | 1.00 | 90 | 1005.3 |
| 20260504004334 | 43 | 315 | 1.0 | 2.0 | 0.00 | 1.00 | 1.00 | 91 | 1005.2 |
| 20260504003334 | 43 | 315 | 0.0 | 0.0 | 0.00 | 1.00 | 1.00 | 90 | 1004.9 |
| 20260504002334 | 43 | 315 | 0.0 | 1.0 | 0.00 | 1.00 | 1.00 | 89 | 1004.9 |
| 20260504001333 | 43 | 180 | 0.0 | 1.0 | 0.00 | 1.00 | 1.00 | 89 | 1004.8 |
| 20260504000336 | 43 | 180 | 1.0 | 1.0 | 0.00 | 1.00 | 1.00 | 89 | 1004.6 |
| 20260503235334 | 43 | 304 | 3.0 | 8.0 | 0.00 | 1.00 | 1.00 | 89 | 1004.6 |
| 20260503234336 | 43 | 316 | 0.0 | 4.0 | 0.00 | 1.00 | 1.00 | 87 | 1004.2 |
| 20260503233336 | 43 | 271 | 1.0 | 3.0 | 0.00 | 1.00 | 1.00 | 88 | 1004.1 |
| 20260503232433 | 43 | 302 | 4.0 | 7.0 | 0.00 | 1.00 | 1.00 | 88 | 1004.0 |
| 20260503231436 | 44 | 314 | 4.0 | 8.0 | 0.00 | 1.00 | 1.00 | 86 | 1003.8 |
| 20260503230534 | 43 | 335 | 3.0 | 7.0 | 0.00 | 1.00 | 1.00 | 88 | 1003.8 |
| 20260503224633 | 43 | 268 | 1.0 | 3.0 | 0.00 | 1.00 | 1.00 | 87 | 1003.7 |
| 20260503223635 | 44 | 3 | 3.0 | 6.0 | 0.00 | 1.00 | 1.00 | 88 | 1003.5 |
| 20260503222734 | 43 | 344 | 3.0 | 7.0 | 0.00 | 1.00 | 1.00 | 89 | 1003.4 |